This demonstration page uses our WeatherBlox Daily Observations layout. Learn more.

Left ArrowRight Arrow

31.84235, -102.49876

Hourly Observations for May 9, 2022

Temp ( °F °C ) Dew Point ( °F °C ) Humidity (%) Winds ( mph kmh ) Pressure ( in mb ) Visibility ( mi km ) Precip ( " mm )
12:53 am 00:53 Clear 78 25.6 17 -8.3 10 10 S 10 17 29.54 1001 10 16 0.00 0.00
1:53 am 01:53 Clear 78 25.6 46 7.8 32 32 SSW 13 20 29.54 1000 10 16 0.00 0.00
2:53 am 02:53 Clear 75 23.9 46 7.8 36 36 SSW 9 15 29.54 1001 10 16 0.00 0.00
3:53 am 03:53 Clear 72 22.2 39 3.9 30 30 SW 8 13 29.54 1000 10 16 0.00 0.00
4:53 am 04:53 Clear 72 22.2 35 1.7 26 26 SSW 9 15 29.56 1001 10 16 0.00 0.00
5:53 am 05:53 Clear 75 23.9 24 -4.4 15 15 SSW 12 19 29.58 1002 10 16 0.00 0.00
6:53 am 06:53 Clear 75 23.9 19 -7.2 12 12 SW 15 24 29.60 1002 10 16 0.00 0.00
7:53 am 07:53 Sunny 79 26.1 19 -7.2 10 10 WSW 14 22 29.62 1003 10 16 0.00 0.00
8:53 am 08:53 Sunny 82 27.8 21 -6.1 10 10 WSW 16 26 29.65 1004 10 16 0.00 0.00
9:53 am 09:53 Sunny 86 30 22 -5.6 9 9 W 20 31 29.67 1005 10 16 0.00 0.00
10:53 am 10:53 Sunny 89 31.7 24 -4.4 9 9 WSW 21 33 29.67 1005 10 16 0.00 0.00
11:53 am 11:53 Sunny 92 33.3 16 -8.9 6 6 WSW 21 33 29.68 1005 10 16 0.00 0.00
12:53 pm 12:53 Sunny 95 35 16 -8.9 5 5 SW 20 31 29.67 1005 10 16 0.00 0.00
1:53 pm 13:53 Sunny 96 35.6 18 -7.8 6 6 WSW 18 30 29.65 1004 10 16 0.00 0.00
2:53 pm 14:53 Sunny 98 36.7 18 -7.8 5 5 WSW 18 30 29.63 1003 10 16 0.00 0.00
3:53 pm 15:53 Sunny 98 36.7 16 -8.9 5 5 WSW 13 20 29.61 1003 10 16 0.00 0.00
4:53 pm 16:53 Sunny 100 37.8 15 -9.4 4 4 WSW 18 30 29.60 1002 10 16 0.00 0.00
5:53 pm 17:53 Sunny 100 37.8 15 -9.4 4 4 WSW 18 30 29.59 1002 10 16 0.00 0.00
6:53 pm 18:53 Sunny 99 37.2 15 -9.4 5 5 SW 16 26 29.60 1002 10 16 0.00 0.00
7:53 pm 19:53 Sunny 96 35.6 16 -8.9 5 5 W 13 20 29.60 1003 10 16 0.00 0.00
8:53 pm 20:53 Clear 88 31.1 15 -9.4 7 7 WNW 7 11 29.63 1004 10 16 0.00 0.00
9:53 pm 21:53 Clear 84 28.9 15 -9.4 7 7 NW 3 6 29.67 1005 10 16 0.00 0.00
10:53 pm 22:53 Clear 83 28.3 14 -10 7 7 Calm 29.70 1006 10 16 0.00 0.00
11:53 pm 23:53 Clear 81 27.2 32 0 17 17 S 9 15 29.73 1007 10 16 0.00 0.00

Powered by AerisWeather